Location: Boskamp
(52.3300°N, 6.1286°E)
Time: 15:26:26
(UTC+00:00)

Daily predictions for brighter satellites

Satellite Brightness Start Highest point End
(mag) Time Altitude Azimuth Time Altitude Azimuth Time Altitude Azimuth
Cosmos 1980 Rocket 2.5 19:44:57 10° NNW 19:50:37 58° NE 19:56:13 10° SE
SL-08 R/B 3.7 19:46:16 10° NNE 19:50:56 45° E 19:55:32 10° S
Okean 1 Rocket 3.3 19:50:07 10° S 19:54:22 52° E 19:58:41 10° NNE
Meteor 2-3 Rocket 3.8 19:50:29 10° NNW 19:56:08 88° ENE 20:01:48 10° SSE
Cosmos 2084 3.4 19:53:52 10° SW 19:58:01 88° NW 20:02:10 10° NE
SPOT 3 Rocket 4.3 19:54:35 10° SE 19:59:19 38° ENE 20:04:03 10° N
CZ-4 R/B 2.7 19:56:59 10° SSW 20:00:21 35° W 20:03:44 10° NNW
Cosmos 1850 Rocket 4.0 19:55:25 10° NNW 20:00:36 75° ENE 20:05:46 10° SSE
CZ-4B R/B 3.8 19:58:48 10° ESE 20:01:37 26° ENE 20:04:30 10° N
Cosmos 1782 3.9 19:59:35 10° SE 20:02:18 21° E 20:05:03 10° NE
ASTEX 1 4.2 20:01:53 10° S 20:06:44 54° W 20:11:37 10° NNW
Cosmos 2084 Rocket 4.2 20:06:09 10° NW 20:10:11 45° NNE 20:14:15 10° ESE
CZ-4B R/B 3.7 20:04:40 10° S 20:10:18 66° WSW 20:15:56 10° NNW
Cosmos 2056 Rocket 3.9 20:04:55 10° SSW 20:10:19 72° WNW 20:15:42 10° NNE
Cosmos 1833 Rocket 2.7 20:05:42 10° SSW 20:11:19 88° ESE 20:16:58 10° NNE
Cosmos 1110 Rocket 4.1 20:06:34 10° S 20:11:44 57° ESE 20:16:56 10° NNE
Cosmos 1802 Rocket 4.1 20:06:09 10° S 20:12:10 56° E 20:18:10 10° NNE
Cosmos 1624 Rocket 4.4 20:08:06 10° SSW 20:13:15 70° WNW 20:18:27 10° NNE
Terra 2.5 20:09:56 10° S 20:14:30 53° W 20:19:08 10° NNW
Gbstr 26 Del rocket 3.4 20:09:38 10° W 20:14:49 60° SSW 20:18:53 11° ESE
Cosmos 2360 Rocket 4.1 20:11:47 10° NNW 20:16:02 21° NNE 20:20:16 10° E
Sich 1 Rocket 3.5 20:12:51 10° S 20:17:11 76° E 20:21:34 10° NNE
SJ 16-02 4.1 20:17:34 10° WNW 20:19:17 12° W 20:20:59 10° WSW
YAOGAN 11 4.3 20:16:18 10° NNE 20:20:38 55° ESE 20:24:59 10° S
CZ-2C R/B 3.5 20:23:39 13° ESE 20:25:24 23° ENE 20:27:42 10° NNE
Cosmos 1743 2.0 20:22:52 10° N 20:25:53 75° ENE 20:28:34 12° SSE
Meteor 1-27 4.3 20:26:06 10° S 20:31:40 60° E 20:37:11 10° NNE
Cosmos 44 Rocket 3.6 20:27:02 10° SSW 20:31:54 48° ESE 20:36:53 10° NE
ISS -2.4 20:30:12 10° SSW 20:32:42 20° SE 20:35:05 11° E
Cosmos 1459 Rocket 4.1 20:26:56 10° S 20:33:12 84° W 20:39:24 10° N
Cosmos 2219 Rocket 4.2 20:29:30 10° NNW 20:33:31 19° NNE 20:37:32 10° ENE
Meteor 2-12 Rocket 4.5 20:28:56 10° N 20:35:01 74° ENE 20:40:49 11° SSE
Ariane Rocket 3.2 20:32:21 13° SE 20:36:42 58° ENE 20:41:41 10° N
Cosmos 2100 Rocket 4.3 20:30:34 10° SSW 20:36:46 74° WNW 20:43:07 10° N
ATLAS 2AS CENTAUR R/B 3.2 20:33:45 10° WSW 20:40:39 67° NW 20:47:27 10° NE
Cosmos 2369 3.8 20:35:59 10° NNW 20:41:43 72° ENE 20:46:24 16° SE
SL-4 R/B 3.8 20:39:47 10° W 20:42:21 17° SW 20:44:44 11° S
BREEZE-M DEB (TANK) 4.4 20:39:34 10° W 20:42:28 30° SSW 20:47:10 15° SE
Spot 2 Rocket 4.0 20:37:49 10° S 20:42:45 56° W 20:47:43 10° NNW
Cosmos 2322 Rocket 3.7 20:39:06 10° NNW 20:43:56 28° NE 20:48:47 10° E
Cosmos 2082 Rocket 2.6 20:42:08 10° S 20:47:27 42° ESE 20:52:47 10° NE
Okean 2 Rocket 4.2 20:43:15 10° SSW 20:47:34 46° WNW 20:51:55 10° N
USA 305 2.5 20:44:26 10° WNW 20:48:32 79° SSW 20:51:08 19° ESE
Cosmos 1437 Rocket 4.2 20:47:59 15° ESE 20:48:57 17° E 20:51:20 10° NE
Cosmos 2151 3.8 20:46:34 10° N 20:50:24 36° ENE 20:52:53 18° SE
Cosmos 1626 Rocket 3.7 20:52:55 10° N 20:57:13 57° ENE 21:00:04 20° SSE
Cosmos 2233 Rocket 4.0 20:52:05 10° S 20:58:17 77° E 21:04:28 10° NNE
Cosmos 1607 4.1 20:52:30 10° SSW 20:58:23 50° ESE 21:04:24 10° NE
Cosmos 2228 2.8 20:55:35 11° S 20:59:29 78° E 21:03:37 10° NNE
USA 186 3.4 20:58:37 10° SSW 21:00:49 23° W 21:03:05 10° NW
Timation 1 Rocket 4.5 20:55:48 10° SW 21:01:49 81° WNW 21:07:53 10° NNE
Okean O Rocket 2.9 20:58:08 10° SSW 21:02:06 35° W 21:06:05 10° NNW
Tsikada Rocket 4.0 20:57:10 10° NNW 21:03:23 81° W 21:08:51 13° S
CZ-4C R/B 1.8 21:04:45 10° SW 21:09:05 87° SE 21:14:45 10° NE
Cosmos 1725 Rocket 4.3 21:03:11 10° SSW 21:09:27 68° WNW 21:15:42 10° N
Cosmos 1992 Rocket 4.4 21:05:58 17° S 21:09:38 43° ESE 21:14:33 10° NE
Cosmos 1452 Rocket 3.6 21:04:50 10° SSW 21:10:03 78° WNW 21:15:20 10° NNE
Meteor 1-20 Rocket 4.3 21:04:32 10° N 21:10:03 66° ENE 21:13:53 21° SSE
COSMOS 2406 4.0 21:07:29 19° SSE 21:10:39 32° ESE 21:15:41 10° NE
SL-16 R/B 2.6 21:05:21 10° NNW 21:10:58 56° NE 21:14:58 19° SE
Helios 1A 4.3 21:09:13 10° NE 21:12:12 20° E 21:13:02 19° ESE
ATLAS 3B R/B 4.0 21:07:54 10° NW 21:14:40 34° WSW 21:20:47 11° S
Okean-O 4.3 21:11:17 10° SSW 21:15:05 29° W 21:18:55 10° NNW
Cosmos 1805 4.1 21:14:07 10° N 21:17:00 28° ENE 21:18:02 23° ESE
CZ-4B R/B 3.8 21:19:07 17° S 21:22:40 57° WSW 21:27:24 10° NNW
Cosmos 2333 Rocket 2.5 21:18:14 10° NNW 21:23:54 61° NE 21:27:39 21° SE
Cosmos 1455 Rocket 4.3 21:21:48 10° SW 21:25:59 41° WNW 21:30:11 10° N
Cosmos 1302 Rocket 4.0 21:22:34 10° SSW 21:27:44 87° WNW 21:32:58 10° NNE
Cosmos 2098 Rocket 4.0 21:25:32 24° SE 21:27:51 37° E 21:32:07 10° NNE
Meteor 1-25 Rocket 4.3 21:23:22 10° N 21:29:06 70° ENE 21:32:32 24° SSE
Cosmos 1980 Rocket 3.6 21:29:22 10° NW 21:34:18 31° WSW 21:38:33 13° SSW
CZ-4B R/B 4.2 21:33:11 14° SSW 21:35:20 26° W 21:38:16 10° NW
Cosmos 2061 Rocket 4.2 21:30:06 10° SSW 21:36:17 72° WNW 21:42:35 10° N
Cosmos 1782 4.1 21:33:33 10° SW 21:36:45 32° WNW 21:39:59 10° N
Cosmos 1544 Rocket 3.4 21:35:33 23° S 21:38:12 84° E 21:42:33 10° NNE
Cosmos 724 4.4 21:33:01 10° SW 21:39:03 84° NW 21:45:01 10° NE
NOSS 3-3 (A) 3.7 21:34:48 10° SSW 21:39:55 59° SE 21:46:04 10° NE
DNEPR-1 R/B 4.4 21:39:54 10° NW 21:45:07 70° NE 21:49:21 21° ESE
Cosmos 1933 3.1 21:44:19 34° S 21:45:52 76° E 21:49:41 10° NNE
Cosmos 2084 Rocket 4.2 21:44:57 10° WNW 21:48:53 39° SW 21:50:19 29° S
Okean 1 4.1 21:49:59 28° ESE 21:50:20 28° E 21:53:26 10° NNE
Cosmos 1758 Rocket 4.2 21:47:01 10° NNW 21:51:14 49° W 21:53:41 23° SSW
Helios 1B rocket 2.4 21:51:51 37° ESE 21:52:49 50° ENE 21:56:15 10° N
CZ-2C R/B 4.0 21:55:17 17° WSW 21:56:10 20° W 21:58:21 10° NW
Cosmos 1464 Rocket 4.0 21:53:23 26° SSE 21:56:52 65° E 22:02:58 10° NNE
Cosmos 1513 Rocket 4.5 21:56:21 21° S 22:00:47 88° WNW 22:06:59 10° N
Cosmos 2360 Rocket 2.4 21:55:25 10° NNW 22:01:06 68° NE 22:04:14 27° SE
Meteor 2-10 4.2 21:58:18 10° NNW 22:04:02 84° ENE 22:06:57 31° SSE
Cosmos 1825 Rocket 3.5 22:03:19 10° N 22:07:40 79° ENE 22:09:11 40° SSE
NOSS 3-3 (C) 3.7 22:02:52 12° SSW 22:07:48 73° SE 22:14:12 10° NE
Geosat 3.9 22:03:18 10° NNE 22:08:21 88° NW 22:12:24 16° SW
ALOS 2 3.6 22:06:32 25° ESE 22:08:21 36° ENE 22:12:23 10° N
ARIANE 5 R/B 3.3 22:07:11 29° ESE 22:08:57 44° ENE 22:13:11 10° N
ISS -3.2 22:05:46 10° WSW 22:08:14 42° SW 22:08:14 42° SW
Cosmos 1953 Rocket 4.0 22:05:02 10° N 22:09:20 50° ENE 22:10:47 35° SE
Cosmos 1072 Rocket 4.5 22:08:18 25° S 22:12:07 86° E 22:18:29 10° N
Cosmos 2058 Rocket 4.3 22:11:46 25° ESE 22:12:36 26° E 22:16:15 10° NNE
USA 305 3.9 22:10:15 10° W 22:13:09 24° SW 22:13:09 24° SW
BREEZE-M R/B 4.2 22:07:29 10° W 22:16:10 79° S 22:21:50 10° E
Cosmos 1602 Rocket 4.2 22:12:47 10° NNW 22:16:54 46° W 22:18:42 28° SSW
Cosmos 1092 Rocket 4.2 22:11:41 10° N 22:17:46 58° ENE 22:20:51 29° SE
Cosmos 2219 Rocket 2.5 22:13:01 10° NNW 22:18:39 60° NE 22:21:48 26° SE
CZ-2C R/B 4.2 22:14:56 10° NNE 22:19:07 40° E 22:20:05 35° SE
DEBRIS 4.2 22:15:22 10° W 22:19:30 72° S 22:35:16 10° E
NOSS 3-4 (A) 3.7 22:14:46 10° NW 22:21:20 85° SW 22:26:01 26° SE
NOSS 3-4 (C) 3.7 22:15:22 10° NW 22:21:58 85° SW 22:26:40 26° SE
Cosmos 1437 Rocket 3.5 22:21:47 26° SW 22:23:19 42° WNW 22:26:45 10° N
Cosmos 540 Rocket 4.3 22:23:21 30° SE 22:24:26 33° ESE 22:29:01 10° NE
Cosmos 1461 3.0 22:26:32 43° ESE 22:26:32 43° ESE 22:29:44 10° NE
Cosmos 2322 Rocket 2.2 22:22:54 10° NNW 22:28:35 79° WSW 22:31:03 35° SSE
Cosmos 2034 Rocket 4.0 22:27:37 31° S 22:30:53 76° E 22:37:15 10° NNE
Cosmos 2082 Rocket 3.2 22:26:02 10° WSW 22:31:31 46° NW 22:37:01 10° NNE
ATLAS 2AS CENTAUR R/B 4.4 22:26:29 10° WNW 22:32:41 34° NNW 22:38:49 10° NE
Cosmos 220 Rocket 3.7 22:32:36 47° SSW 22:33:43 84° ESE 22:37:49 10° NNE
Cosmos 1536 3.0 22:33:57 10° N 22:37:33 49° ENE 22:38:06 44° ESE
Cosmos 1707 3.3 22:38:21 31° ENE 22:38:21 31° ENE 22:40:22 10° NNE
USA 234 3.4 22:32:09 10° ENE 22:38:32 52° SE 22:42:48 21° SSW
ACS3 Solar Sail 3.9 22:38:54 10° ENE 22:41:00 12° ENE 22:43:06 10° E
COSMOS 2428 3.9 22:36:43 10° NNW 22:42:03 38° NE 22:46:33 14° ESE
Cosmos 2237 Rocket 4.2 22:40:37 10° NNW 22:45:11 24° NE 22:49:44 10° E
Helios 1A 3.6 22:43:19 10° N 22:47:06 46° WNW 22:48:44 28° SW
Cosmos 1763 Rocket 3.7 22:45:39 39° SSE 22:47:14 55° ESE 22:52:24 10° NNE
Cosmos 1503 Rocket 4.0 22:42:05 10° NNW 22:47:16 67° WSW 22:49:02 40° S
Cosmos 1777 Rocket 4.3 22:42:23 10° NNW 22:47:30 54° WSW 22:49:16 36° SSW
Cosmos 2278 4.3 22:42:08 10° NW 22:47:33 45° WSW 22:49:38 32° SSW
Cosmos-2242 2.9 22:47:28 52° SSE 22:48:14 64° E 22:52:20 10° NNE
CZ-2C R/B 4.2 22:44:54 10° NNE 22:50:01 34° E 22:51:56 27° SE
Cosmos 990 Rocket 3.9 22:45:28 10° NNW 22:50:39 86° WSW 22:52:30 41° SSE
ARGOS Delta rocket 4.2 22:49:34 10° NNE 22:54:30 58° E 22:56:07 40° SSE
Cosmos 1606 Rocket 4.2 22:52:45 30° SW 22:54:31 50° WNW 22:58:46 10° N
COSMOS 2406 3.8 22:49:26 12° SW 22:54:41 57° NW 23:00:22 10° NNE
SL-16 R/B 3.3 22:49:50 10° NW 22:54:48 32° WSW 22:56:47 25° SW
USA 290 2.5 22:56:48 54° ENE 22:56:48 54° ENE 22:59:28 10° NNE
Cosmos 1354 Rocket 3.9 22:52:14 10° NNW 22:57:31 78° WSW 22:59:19 42° S
CZ-4C R/B 3.8 22:53:29 10° W 22:57:58 34° NNW 23:03:40 10° NE
Cosmos 1634 Rocket 4.0 22:57:50 36° S 23:00:30 73° E 23:06:41 10° NNE
Cosmos 1766 2.8 22:58:10 10° NNW 23:01:17 68° W 23:01:17 68° W
Cosmos 1470 2.9 23:00:53 10° N 23:04:05 45° ENE 23:04:12 45° E
Cosmos 2279 Rocket 4.3 23:01:48 34° SSE 23:04:24 57° E 23:10:31 10° NNE
SeaSat 1 2.9 23:03:53 26° ESE 23:06:31 56° NE 23:11:20 10° NNW
Cosmos 1726 Rocket 4.1 23:06:20 34° WSW 23:07:37 47° WNW 23:11:33 10° N
Cosmos 2333 Rocket 3.4 23:03:00 10° NW 23:07:50 29° WSW 23:09:39 24° SW
Cosmos 2221 3.3 23:09:57 33° ESE 23:10:33 35° E 23:14:23 10° NNE
Meteor 2-2 Rocket 4.2 23:10:21 38° S 23:12:38 88° ESE 23:18:25 10° NNE
Cosmos 1842 3.3 23:13:51 48° ENE 23:13:51 48° ENE 23:16:36 10° NNE
BREEZE-M DEB (TANK) 3.5 23:10:14 10° W 23:17:43 57° S 23:22:38 10° ESE
CZ-2C R/B 2.9 23:16:22 33° SE 23:18:42 62° ENE 23:23:53 10° N
Cosmos 1833 4.1 23:17:41 38° SSW 23:19:57 77° ESE 23:25:36 10° NNE
NOSS 0 Rocket 4.4 23:17:18 10° NNW 23:23:25 56° NE 23:28:04 17° SE
Spot 4 4.5 23:23:21 35° SW 23:24:37 43° W 23:29:12 10° NNW
KORONAS-FOTON 3.4 23:25:14 78° W 23:25:16 79° W 23:28:40 10° N
Helios 1B rocket 4.2 23:25:48 15° W 23:26:05 15° W 23:28:15 10° NW
SAR-Lupe-2 4.0 23:26:37 43° W 23:26:37 43° W 23:29:41 10° NNW
Cosmos 1975 2.6 23:24:14 10° N 23:27:55 70° ENE 23:28:17 64° ESE
Aureole 1 Rocket 3.7 23:24:25 10° NNW 23:29:38 71° WSW 23:32:03 38° S
Cosmos 2266 Rocket 4.1 23:25:34 10° N 23:31:35 65° ENE 23:34:28 32° SSE
Cosmos 2322 3.7 23:26:40 10° NNW 23:32:25 79° ENE 23:35:16 31° SE
Cosmos 1812 Rocket 4.1 23:34:01 40° SE 23:34:56 47° E 23:39:11 10° NNE
Cosmos 2297 Rocket 3.8 23:33:58 17° ESE 23:35:36 19° E 23:39:30 10° NE
Cosmos 44 3.4 23:30:33 10° NW 23:35:59 81° SW 23:38:07 37° SSE
Cosmos 1271 Rocket 2.3 23:38:07 79° E 23:38:07 79° E 23:41:32 10° NNE
Cosmos 372 Rocket 3.9 23:36:54 10° NNW 23:42:02 72° WSW 23:43:34 45° S
RESURS DK-1 2.5 23:39:05 10° NNW 23:43:04 65° NE 23:44:13 42° ESE
Cosmos 1937 Rocket 3.6 23:38:11 10° NNW 23:43:22 71° ENE 23:45:41 33° SE
Cosmos 2360 Rocket 3.4 23:40:01 10° NW 23:44:38 26° WSW 23:45:58 24° SW
ALOS 2 3.7 23:43:55 29° WSW 23:44:43 31° W 23:48:41 10° NNW
ARIANE 5 R/B 3.9 23:44:33 25° WSW 23:45:25 26° W 23:49:12 10° NW
ISS-0.423:50:53E23:50:53E23:41:23W
Meteor 1-11 Rocket 3.7 23:41:19 10° NNW 23:47:06 79° ENE 23:49:32 36° SSE
GP-B 3.0 23:43:49 10° N 23:48:13 85° E 23:49:14 53° S
Cosmos 2058 Rocket 4.0 23:48:53 30° WSW 23:50:18 39° WNW 23:54:24 10° N
Cosmos 468 Rocket 3.9 23:51:08 40° SSW 23:53:05 89° NW 23:58:23 10° NNE
